Year,Month,Day,Hour,Minute,Value (Times are PST for windgust in km/hr)
2012,03,13,00,00,19.30
2012,03,13,00,01,17.70
2012,03,13,00,02,22.50
2012,03,13,00,03,12.90
2012,03,13,00,04,20.90
2012,03,13,00,05,16.10
2012,03,13,00,06,24.20
2012,03,13,00,07,19.30
2012,03,13,00,08,17.70
2012,03,13,00,09,16.10
2012,03,13,00,10,11.30
2012,03,13,00,11,19.30
2012,03,13,00,12,20.90
2012,03,13,00,13,20.90
2012,03,13,00,14,11.30
2012,03,13,00,15,12.90
2012,03,13,00,16,22.50
2012,03,13,00,17,9.60
2012,03,13,00,18,24.20
2012,03,13,00,19,11.30
2012,03,13,00,20,11.30
2012,03,13,00,21,16.10
2012,03,13,00,22,16.10
2012,03,13,00,23,11.30
2012,03,13,00,24,16.10
2012,03,13,00,25,11.30
2012,03,13,00,26,16.10
2012,03,13,00,27,8.10
2012,03,13,00,28,11.30
2012,03,13,00,29,14.50
2012,03,13,00,30,6.40
2012,03,13,00,31,11.30
2012,03,13,00,32,16.10
2012,03,13,00,33,14.50
2012,03,13,00,34,14.50
2012,03,13,00,35,4.80
2012,03,13,00,36,14.50
2012,03,13,00,37,16.10
2012,03,13,00,38,12.90
2012,03,13,00,39,14.50
2012,03,13,00,40,16.10
2012,03,13,00,41,16.10
2012,03,13,00,42,12.90
2012,03,13,00,43,14.50
2012,03,13,00,44,8.10
2012,03,13,00,45,16.10
2012,03,13,00,46,9.60
2012,03,13,00,47,8.10
2012,03,13,00,48,6.40
2012,03,13,00,49,11.30
2012,03,13,00,50,6.40
2012,03,13,00,51,11.30
2012,03,13,00,52,6.40
2012,03,13,00,53,14.50
2012,03,13,00,54,24.20
2012,03,13,00,55,14.50
2012,03,13,00,56,16.10
2012,03,13,00,57,14.50
2012,03,13,00,58,9.60
2012,03,13,00,59,8.10
2012,03,13,01,00,19.30
2012,03,13,01,01,16.10
2012,03,13,01,02,6.40
2012,03,13,01,03,9.60
2012,03,13,01,04,8.10
2012,03,13,01,05,9.60
2012,03,13,01,06,8.10
2012,03,13,01,07,17.70
2012,03,13,01,08,17.70
2012,03,13,01,09,11.30
2012,03,13,01,10,9.60
2012,03,13,01,11,9.60
2012,03,13,01,12,22.50
2012,03,13,01,13,22.50
2012,03,13,01,14,6.40
2012,03,13,01,15,4.80
2012,03,13,01,16,4.80
2012,03,13,01,17,16.10
2012,03,13,01,18,16.10
2012,03,13,01,19,16.10
2012,03,13,01,20,17.70
2012,03,13,01,21,16.10
2012,03,13,01,22,11.30
2012,03,13,01,23,20.90
2012,03,13,01,24,14.50
2012,03,13,01,25,11.30
2012,03,13,01,26,8.10
2012,03,13,01,27,14.50
2012,03,13,01,28,14.50
2012,03,13,01,29,20.90
2012,03,13,01,30,16.10
2012,03,13,01,31,20.90
2012,03,13,01,32,16.10
2012,03,13,01,33,16.10
2012,03,13,01,34,22.50
2012,03,13,01,35,17.70
2012,03,13,01,36,16.10
2012,03,13,01,37,16.10
2012,03,13,01,38,6.40
2012,03,13,01,39,20.90
2012,03,13,01,40,24.20
2012,03,13,01,41,16.10
2012,03,13,01,42,19.30
2012,03,13,01,43,17.70
2012,03,13,01,44,11.30
2012,03,13,01,45,19.30
2012,03,13,01,46,8.10
2012,03,13,01,47,17.70
2012,03,13,01,48,19.30
2012,03,13,01,49,6.40
2012,03,13,01,50,22.50
2012,03,13,01,51,20.90
2012,03,13,01,52,11.30
2012,03,13,01,53,19.30
2012,03,13,01,54,20.90
2012,03,13,01,55,20.90
2012,03,13,01,56,24.20
2012,03,13,01,57,20.90
2012,03,13,01,58,8.10
2012,03,13,01,59,25.70
2012,03,13,02,00,27.40
2012,03,13,02,01,16.10
2012,03,13,02,02,19.30
2012,03,13,02,03,20.90
2012,03,13,02,04,22.50
2012,03,13,02,05,17.70
2012,03,13,02,06,16.10
2012,03,13,02,07,22.50
2012,03,13,02,08,24.20
2012,03,13,02,09,20.90
2012,03,13,02,10,24.20
2012,03,13,02,11,22.50
2012,03,13,02,12,27.40
2012,03,13,02,13,27.40
2012,03,13,02,14,17.70
2012,03,13,02,15,12.90
2012,03,13,02,16,16.10
2012,03,13,02,17,19.30
2012,03,13,02,18,25.70
2012,03,13,02,19,14.50
2012,03,13,02,20,24.20
2012,03,13,02,21,29.00
2012,03,13,02,22,25.70
2012,03,13,02,23,27.40
2012,03,13,02,24,29.00
2012,03,13,02,25,24.20
2012,03,13,02,26,27.40
2012,03,13,02,27,19.30
2012,03,13,02,28,22.50
2012,03,13,02,29,16.10
2012,03,13,02,30,22.50
2012,03,13,02,31,29.00
2012,03,13,02,32,24.20
2012,03,13,02,33,25.70
2012,03,13,02,34,35.40
2012,03,13,02,35,17.70
2012,03,13,02,36,25.70
2012,03,13,02,37,22.50
2012,03,13,02,38,20.90
2012,03,13,02,39,29.00
2012,03,13,02,40,25.70
2012,03,13,02,41,29.00
2012,03,13,02,42,25.70
2012,03,13,02,43,24.20
2012,03,13,02,44,33.80
2012,03,13,02,45,22.50
2012,03,13,02,46,17.70
2012,03,13,02,47,11.30
2012,03,13,02,48,9.60
2012,03,13,02,49,17.70
2012,03,13,02,50,19.30
2012,03,13,02,51,16.10
2012,03,13,02,52,17.70
2012,03,13,02,53,22.50
2012,03,13,02,54,16.10
2012,03,13,02,55,9.60
2012,03,13,02,56,20.90
2012,03,13,02,57,17.70
2012,03,13,02,58,17.70
2012,03,13,02,59,20.90
2012,03,13,03,00,14.50
2012,03,13,03,01,38.60
2012,03,13,03,02,32.20
2012,03,13,03,03,20.90
2012,03,13,03,04,22.50
2012,03,13,03,05,27.40
2012,03,13,03,06,22.50
2012,03,13,03,07,25.70
2012,03,13,03,08,27.40
2012,03,13,03,09,11.30
2012,03,13,03,10,17.70
2012,03,13,03,11,16.10
2012,03,13,03,12,16.10
2012,03,13,03,13,30.60
2012,03,13,03,14,19.30
2012,03,13,03,15,20.90
2012,03,13,03,16,20.90
2012,03,13,03,17,32.20
2012,03,13,03,18,29.00
2012,03,13,03,19,29.00
2012,03,13,03,20,27.40
2012,03,13,03,21,35.40
2012,03,13,03,22,25.70
2012,03,13,03,23,16.10
2012,03,13,03,24,24.20
2012,03,13,03,25,20.90
2012,03,13,03,26,17.70
2012,03,13,03,27,19.30
2012,03,13,03,28,25.70
2012,03,13,03,29,22.50
2012,03,13,03,30,19.30
2012,03,13,03,31,22.50
2012,03,13,03,32,25.70
2012,03,13,03,33,24.20
2012,03,13,03,34,19.30
2012,03,13,03,35,24.20
2012,03,13,03,36,9.60
2012,03,13,03,37,16.10
2012,03,13,03,38,17.70
2012,03,13,03,39,12.90
2012,03,13,03,40,11.30
2012,03,13,03,41,17.70
2012,03,13,03,42,20.90
2012,03,13,03,43,22.50
2012,03,13,03,44,20.90
2012,03,13,03,45,20.90
2012,03,13,03,46,16.10
2012,03,13,03,47,16.10
2012,03,13,03,48,16.10
2012,03,13,03,49,8.10
2012,03,13,03,50,4.80
2012,03,13,03,51,12.90
2012,03,13,03,52,9.60
2012,03,13,03,53,16.10
2012,03,13,03,54,9.60
2012,03,13,03,55,19.30
2012,03,13,03,56,16.10
2012,03,13,03,57,16.10
2012,03,13,03,58,20.90
2012,03,13,03,59,22.50
2012,03,13,04,00,17.70
2012,03,13,04,01,16.10
2012,03,13,04,02,14.50
2012,03,13,04,03,17.70
2012,03,13,04,04,9.60
2012,03,13,04,05,11.30
2012,03,13,04,06,11.30
2012,03,13,04,07,4.80
2012,03,13,04,08,11.30
2012,03,13,04,09,20.90
2012,03,13,04,10,9.60
2012,03,13,04,11,12.90
2012,03,13,04,12,19.30
2012,03,13,04,13,20.90
2012,03,13,04,14,8.10
2012,03,13,04,15,20.90
2012,03,13,04,16,24.20
2012,03,13,04,17,17.70
2012,03,13,04,18,11.30
2012,03,13,04,19,9.60
2012,03,13,04,20,19.30
2012,03,13,04,21,16.10
2012,03,13,04,22,8.10
2012,03,13,04,23,14.50
2012,03,13,04,24,20.90
2012,03,13,04,25,11.30
2012,03,13,04,26,17.70
2012,03,13,04,27,9.60
2012,03,13,04,28,12.90
2012,03,13,04,29,17.70
2012,03,13,04,30,16.10
2012,03,13,04,31,9.60
2012,03,13,04,32,20.90
2012,03,13,04,33,14.50
2012,03,13,04,34,22.50
2012,03,13,04,35,20.90
2012,03,13,04,36,11.30
2012,03,13,04,37,16.10
2012,03,13,04,38,9.60
2012,03,13,04,39,17.70
2012,03,13,04,40,16.10
2012,03,13,04,41,4.80
2012,03,13,04,42,6.40
2012,03,13,04,43,6.40
2012,03,13,04,44,8.10
2012,03,13,04,45,9.60
2012,03,13,04,46,4.80
2012,03,13,04,47,6.40
2012,03,13,04,48,4.80
2012,03,13,04,49,8.10
2012,03,13,04,51,9.60
2012,03,13,04,52,14.50
2012,03,13,04,53,14.50
2012,03,13,04,54,16.10
2012,03,13,04,55,8.10
2012,03,13,04,56,9.60
2012,03,13,04,57,11.30
2012,03,13,04,58,6.40
2012,03,13,04,59,25.70
2012,03,13,05,00,14.50
2012,03,13,05,01,19.30
2012,03,13,05,02,19.30
2012,03,13,05,03,22.50
2012,03,13,05,04,20.90
2012,03,13,05,05,16.10
2012,03,13,05,06,9.60
2012,03,13,05,07,8.10
2012,03,13,05,08,6.40
2012,03,13,05,09,19.30
2012,03,13,05,10,11.30
2012,03,13,05,11,29.00
2012,03,13,05,12,16.10
2012,03,13,05,13,14.50
2012,03,13,05,14,14.50
2012,03,13,05,15,25.70
2012,03,13,05,16,22.50
2012,03,13,05,17,11.30
2012,03,13,05,18,22.50
2012,03,13,05,19,19.30
2012,03,13,05,20,6.40
2012,03,13,05,21,16.10
2012,03,13,05,22,9.60
2012,03,13,05,23,6.40
2012,03,13,05,24,11.30
2012,03,13,05,25,9.60
2012,03,13,05,26,11.30
2012,03,13,05,27,6.40
2012,03,13,05,28,6.40
2012,03,13,05,29,16.10
2012,03,13,05,30,9.60
2012,03,13,05,31,6.40
2012,03,13,05,32,1.60
2012,03,13,05,33,6.40
2012,03,13,05,34,6.40
2012,03,13,05,35,9.60
2012,03,13,05,36,8.10
2012,03,13,05,37,11.30
2012,03,13,05,38,9.60
2012,03,13,05,39,14.50
2012,03,13,05,40,8.10
2012,03,13,05,41,17.70
2012,03,13,05,42,9.60
2012,03,13,05,43,11.30
2012,03,13,05,44,16.10
2012,03,13,05,45,9.60
2012,03,13,05,46,16.10
2012,03,13,05,47,11.30
2012,03,13,05,48,14.50
2012,03,13,05,49,14.50
2012,03,13,05,50,9.60
2012,03,13,05,51,14.50
2012,03,13,05,52,6.40
2012,03,13,05,53,14.50
2012,03,13,05,54,11.30
2012,03,13,05,55,14.50
2012,03,13,05,56,14.50
2012,03,13,05,57,16.10
2012,03,13,05,58,14.50
2012,03,13,05,59,14.50
2012,03,13,06,00,14.50
2012,03,13,06,01,11.30
2012,03,13,06,02,16.10
2012,03,13,06,03,16.10
2012,03,13,06,04,8.10
2012,03,13,06,05,19.30
2012,03,13,06,06,17.70
2012,03,13,06,07,8.10
2012,03,13,06,08,8.10
2012,03,13,06,09,9.60
2012,03,13,06,10,6.40
2012,03,13,06,11,16.10
2012,03,13,06,13,4.80
2012,03,13,06,14,9.60
2012,03,13,06,15,4.80
2012,03,13,06,16,3.20
2012,03,13,06,17,6.40
2012,03,13,06,18,8.10
2012,03,13,06,19,6.40
2012,03,13,06,20,4.80
2012,03,13,06,21,4.80
2012,03,13,06,22,3.20
2012,03,13,06,23,3.20
2012,03,13,06,24,3.20
2012,03,13,06,25,4.80
2012,03,13,06,26,6.40
2012,03,13,06,27,4.80
2012,03,13,06,28,1.60
2012,03,13,06,29,1.60
2012,03,13,06,30,1.60
2012,03,13,06,31,6.40
2012,03,13,06,32,8.10
2012,03,13,06,33,3.20
2012,03,13,06,34,3.20
2012,03,13,06,35,1.60
2012,03,13,06,36,3.20
2012,03,13,06,37,1.60
2012,03,13,06,38,4.80
2012,03,13,06,39,11.30
2012,03,13,06,40,12.90
2012,03,13,06,41,6.40
2012,03,13,06,42,4.80
2012,03,13,06,43,1.60
2012,03,13,06,44,4.80
2012,03,13,06,45,3.20
2012,03,13,06,46,12.90
2012,03,13,06,47,6.40
2012,03,13,06,48,14.50
2012,03,13,06,49,6.40
2012,03,13,06,50,4.80
2012,03,13,06,51,14.50
2012,03,13,06,52,6.40
2012,03,13,06,53,8.10
2012,03,13,06,54,17.70
2012,03,13,06,55,19.30
2012,03,13,06,56,11.30
2012,03,13,06,57,14.50
2012,03,13,06,58,12.90
2012,03,13,06,59,16.10
2012,03,13,07,00,16.10
2012,03,13,07,01,16.10
2012,03,13,07,02,19.30
2012,03,13,07,03,22.50
2012,03,13,07,04,20.90
2012,03,13,07,05,24.20
2012,03,13,07,06,17.70
2012,03,13,07,07,11.30
2012,03,13,07,08,17.70
2012,03,13,07,09,17.70
2012,03,13,07,10,19.30
2012,03,13,07,11,19.30
2012,03,13,07,12,17.70
2012,03,13,07,13,22.50
2012,03,13,07,14,20.90
2012,03,13,07,15,20.90
2012,03,13,07,16,14.50
2012,03,13,07,17,9.60
2012,03,13,07,18,9.60
2012,03,13,07,19,16.10
2012,03,13,07,20,9.60
2012,03,13,07,21,8.10
2012,03,13,07,22,8.10
2012,03,13,07,23,9.60
2012,03,13,07,24,19.30
2012,03,13,07,25,9.60
2012,03,13,07,26,11.30
2012,03,13,07,27,11.30
2012,03,13,07,28,8.10
2012,03,13,07,29,11.30
2012,03,13,07,30,8.10
2012,03,13,07,31,1.60
2012,03,13,07,32,1.60
2012,03,13,07,33,8.10
2012,03,13,07,34,9.60
2012,03,13,07,35,6.40
2012,03,13,07,36,8.10
2012,03,13,07,37,6.40
2012,03,13,07,38,14.50
2012,03,13,07,39,16.10
2012,03,13,07,40,8.10
2012,03,13,07,41,8.10
2012,03,13,07,42,6.40
2012,03,13,07,43,6.40
2012,03,13,07,44,4.80
2012,03,13,07,45,4.80
2012,03,13,07,46,3.20
2012,03,13,07,47,1.60
2012,03,13,07,48,8.10
2012,03,13,07,49,6.40
2012,03,13,07,50,6.40
2012,03,13,07,51,3.20
2012,03,13,07,52,8.10
2012,03,13,07,53,16.10
2012,03,13,07,54,6.40
2012,03,13,07,55,4.80
2012,03,13,07,56,4.80
2012,03,13,07,57,8.10
2012,03,13,07,58,12.90
2012,03,13,07,59,11.30
2012,03,13,08,00,20.90
2012,03,13,08,01,8.10
2012,03,13,08,02,16.10
2012,03,13,08,03,16.10
2012,03,13,08,04,17.70
2012,03,13,08,05,12.90
2012,03,13,08,06,16.10
2012,03,13,08,07,11.30
2012,03,13,08,08,16.10
2012,03,13,08,09,14.50
2012,03,13,08,10,11.30
2012,03,13,08,11,16.10
2012,03,13,08,12,14.50
2012,03,13,08,13,19.30
2012,03,13,08,14,16.10
2012,03,13,08,15,16.10
2012,03,13,08,16,20.90
2012,03,13,08,17,24.20
2012,03,13,08,18,24.20
2012,03,13,08,19,17.70
2012,03,13,08,20,14.50
2012,03,13,08,21,4.80
2012,03,13,08,22,6.40
2012,03,13,08,23,6.40
2012,03,13,08,24,4.80
2012,03,13,08,25,17.70
2012,03,13,08,26,11.30
2012,03,13,08,27,8.10
2012,03,13,08,28,8.10
2012,03,13,08,29,9.60
2012,03,13,08,30,11.30
2012,03,13,08,31,6.40
2012,03,13,08,32,12.90
2012,03,13,08,33,9.60
2012,03,13,08,34,8.10
2012,03,13,08,35,8.10
2012,03,13,08,36,4.80
2012,03,13,08,37,9.60
2012,03,13,08,38,14.50
2012,03,13,08,39,16.10
2012,03,13,08,40,16.10
2012,03,13,08,41,14.50
2012,03,13,08,42,11.30
2012,03,13,08,43,16.10
2012,03,13,08,44,16.10
2012,03,13,08,45,16.10
2012,03,13,08,46,16.10
2012,03,13,08,47,9.60
2012,03,13,08,48,3.20
2012,03,13,08,49,8.10
2012,03,13,08,50,8.10
2012,03,13,08,51,6.40
2012,03,13,08,52,4.80
2012,03,13,08,53,6.40
2012,03,13,08,54,14.50
2012,03,13,08,55,11.30
2012,03,13,08,56,8.10
2012,03,13,08,57,9.60
2012,03,13,08,58,11.30
2012,03,13,08,59,11.30
2012,03,13,09,00,6.40
2012,03,13,09,01,6.40
2012,03,13,09,02,14.50
2012,03,13,09,03,11.30
2012,03,13,09,04,12.90
2012,03,13,09,05,8.10
2012,03,13,09,06,9.60
2012,03,13,09,07,11.30
2012,03,13,09,08,4.80
2012,03,13,09,09,8.10
2012,03,13,09,10,9.60
2012,03,13,09,11,8.10
2012,03,13,09,12,6.40
2012,03,13,09,13,4.80
2012,03,13,09,14,6.40
2012,03,13,09,15,9.60
2012,03,13,09,16,6.40
2012,03,13,09,17,8.10
2012,03,13,09,18,11.30
2012,03,13,09,19,9.60
2012,03,13,09,20,6.40
2012,03,13,09,21,6.40
2012,03,13,09,22,4.80
2012,03,13,09,23,9.60
2012,03,13,09,24,9.60
2012,03,13,09,25,12.90
2012,03,13,09,26,8.10
2012,03,13,09,27,4.80
2012,03,13,09,28,6.40
2012,03,13,09,29,9.60
2012,03,13,09,30,9.60
2012,03,13,09,31,8.10
2012,03,13,09,32,8.10
2012,03,13,09,33,9.60
2012,03,13,09,34,4.80
2012,03,13,09,35,11.30
2012,03,13,09,36,11.30
2012,03,13,09,37,8.10
2012,03,13,09,38,4.80
2012,03,13,09,39,6.40
2012,03,13,09,40,6.40
2012,03,13,09,41,1.60
2012,03,13,09,42,4.80
2012,03,13,09,43,6.40
2012,03,13,09,44,4.80
2012,03,13,09,45,3.20
2012,03,13,09,46,4.80
2012,03,13,09,47,8.10
2012,03,13,09,48,6.40
2012,03,13,09,49,14.50
2012,03,13,09,50,11.30
2012,03,13,09,51,3.20
2012,03,13,09,52,3.20
2012,03,13,09,53,8.10
2012,03,13,09,54,8.10
2012,03,13,09,55,9.60
2012,03,13,09,56,6.40
2012,03,13,09,57,4.80
2012,03,13,09,58,3.20
2012,03,13,09,59,1.60
2012,03,13,10,00,4.80
2012,03,13,10,01,11.30
2012,03,13,10,02,8.10
2012,03,13,10,03,9.60
2012,03,13,10,04,9.60
2012,03,13,10,05,11.30
2012,03,13,10,06,8.10
2012,03,13,10,07,9.60
2012,03,13,10,08,6.40
2012,03,13,10,09,8.10
2012,03,13,10,10,3.20
2012,03,13,10,11,6.40
2012,03,13,10,12,6.40
2012,03,13,10,13,6.40
2012,03,13,10,14,11.30
2012,03,13,10,15,8.10
2012,03,13,10,16,8.10
2012,03,13,10,17,8.10
2012,03,13,10,18,6.40
2012,03,13,10,19,9.60
2012,03,13,10,20,9.60
2012,03,13,10,21,8.10
2012,03,13,10,22,6.40
2012,03,13,10,23,6.40
2012,03,13,10,24,8.10
2012,03,13,10,25,8.10
2012,03,13,10,26,3.20
2012,03,13,10,27,6.40
2012,03,13,10,28,11.30
2012,03,13,10,29,11.30
2012,03,13,10,30,8.10
2012,03,13,10,31,8.10
2012,03,13,10,32,6.40
2012,03,13,10,33,8.10
2012,03,13,10,34,9.60
2012,03,13,10,35,9.60
2012,03,13,10,36,11.30
2012,03,13,10,37,11.30
2012,03,13,10,38,8.10
2012,03,13,10,39,8.10
2012,03,13,10,40,9.60
2012,03,13,10,41,6.40
2012,03,13,10,42,11.30
2012,03,13,10,43,8.10
2012,03,13,10,44,8.10
2012,03,13,10,45,6.40
2012,03,13,10,46,4.80
2012,03,13,10,47,4.80
2012,03,13,10,48,4.80
2012,03,13,10,49,8.10
2012,03,13,10,50,8.10
2012,03,13,10,51,3.20
2012,03,13,10,52,4.80
2012,03,13,10,53,6.40
2012,03,13,10,54,6.40
2012,03,13,10,55,3.20
2012,03,13,10,56,6.40
2012,03,13,10,57,6.40
2012,03,13,10,58,8.10
2012,03,13,10,59,4.80
2012,03,13,11,00,6.40
2012,03,13,11,01,6.40
2012,03,13,11,02,4.80
2012,03,13,11,03,6.40
2012,03,13,11,04,6.40
2012,03,13,11,05,1.60
2012,03,13,11,06,6.40
2012,03,13,11,07,6.40
2012,03,13,11,08,3.20
2012,03,13,11,10,4.80
2012,03,13,11,12,8.10
2012,03,13,11,13,8.10
2012,03,13,11,14,8.10
2012,03,13,11,15,11.30
2012,03,13,11,16,8.10
2012,03,13,11,17,6.40
2012,03,13,11,18,4.80
2012,03,13,11,19,4.80
2012,03,13,11,20,4.80
2012,03,13,11,21,8.10
2012,03,13,11,22,4.80
2012,03,13,11,23,6.40
2012,03,13,11,24,4.80
2012,03,13,11,25,3.20
2012,03,13,11,26,4.80
2012,03,13,11,27,3.20
2012,03,13,11,28,6.40
2012,03,13,11,29,6.40
2012,03,13,11,30,6.40
2012,03,13,11,31,4.80
2012,03,13,11,32,6.40
2012,03,13,11,33,8.10
2012,03,13,11,34,6.40
2012,03,13,11,35,9.60
2012,03,13,11,36,9.60
2012,03,13,11,37,6.40
2012,03,13,11,38,8.10
2012,03,13,11,39,8.10
2012,03,13,11,40,6.40
2012,03,13,11,41,6.40
2012,03,13,11,42,6.40
2012,03,13,11,43,4.80
2012,03,13,11,44,4.80
2012,03,13,11,45,6.40
2012,03,13,11,46,3.20
2012,03,13,11,47,6.40
2012,03,13,11,48,3.20
2012,03,13,11,49,6.40
2012,03,13,11,50,6.40
2012,03,13,11,51,4.80
2012,03,13,11,52,1.60
2012,03,13,11,53,3.20
2012,03,13,11,54,6.40
2012,03,13,11,55,4.80
2012,03,13,11,56,6.40
2012,03,13,11,57,6.40
2012,03,13,11,58,8.10
2012,03,13,11,59,8.10
2012,03,13,12,00,9.60
2012,03,13,12,01,8.10
2012,03,13,12,02,9.60
2012,03,13,12,03,4.80
2012,03,13,12,04,9.60
2012,03,13,12,05,11.30
2012,03,13,12,06,11.30
2012,03,13,12,07,6.40
2012,03,13,12,08,11.30
2012,03,13,12,09,9.60
2012,03,13,12,10,9.60
2012,03,13,12,11,4.80
2012,03,13,12,12,3.20
2012,03,13,12,13,6.40
2012,03,13,12,14,9.60
2012,03,13,12,15,8.10
2012,03,13,12,16,8.10
2012,03,13,12,17,11.30
2012,03,13,12,18,8.10
2012,03,13,12,19,4.80
2012,03,13,12,20,6.40
2012,03,13,12,21,9.60
2012,03,13,12,22,6.40
2012,03,13,12,23,4.80
2012,03,13,12,24,8.10
2012,03,13,12,25,8.10
2012,03,13,12,26,9.60
2012,03,13,12,27,8.10
2012,03,13,12,28,8.10
2012,03,13,12,29,6.40
2012,03,13,12,30,9.60
2012,03,13,12,31,17.70
2012,03,13,12,32,17.70
2012,03,13,12,33,11.30
2012,03,13,12,34,11.30
2012,03,13,12,35,16.10
2012,03,13,12,36,16.10
2012,03,13,12,37,16.10
2012,03,13,12,38,16.10
2012,03,13,12,39,16.10
2012,03,13,12,40,16.10
2012,03,13,12,41,9.60
2012,03,13,12,42,16.10
2012,03,13,12,43,11.30
2012,03,13,12,44,19.30
2012,03,13,12,45,16.10
2012,03,13,12,46,16.10
2012,03,13,12,47,12.90
2012,03,13,12,48,9.60
2012,03,13,12,49,9.60
2012,03,13,12,50,11.30
2012,03,13,12,51,14.50
2012,03,13,12,52,17.70
2012,03,13,12,53,14.50
2012,03,13,12,54,11.30
2012,03,13,12,55,9.60
2012,03,13,12,56,11.30
2012,03,13,12,57,11.30
2012,03,13,12,58,9.60
2012,03,13,12,59,9.60
2012,03,13,13,00,11.30
2012,03,13,13,01,16.10
2012,03,13,13,02,14.50
2012,03,13,13,03,11.30
2012,03,13,13,04,12.90
2012,03,13,13,05,14.50
2012,03,13,13,06,9.60
2012,03,13,13,07,6.40
2012,03,13,13,08,8.10
2012,03,13,13,09,8.10
2012,03,13,13,10,6.40
2012,03,13,13,11,11.30
2012,03,13,13,12,8.10
2012,03,13,13,13,9.60
2012,03,13,13,14,9.60
2012,03,13,13,15,17.70
2012,03,13,13,16,16.10
2012,03,13,13,17,11.30
2012,03,13,13,18,11.30
2012,03,13,13,19,17.70
2012,03,13,13,20,11.30
2012,03,13,13,21,12.90
2012,03,13,13,22,6.40
2012,03,13,13,23,16.10
2012,03,13,13,24,17.70
2012,03,13,13,25,14.50
2012,03,13,13,26,16.10
2012,03,13,13,27,17.70
2012,03,13,13,28,11.30
2012,03,13,13,29,17.70
2012,03,13,13,30,11.30
2012,03,13,13,31,14.50
2012,03,13,13,32,8.10
2012,03,13,13,33,11.30
2012,03,13,13,34,11.30
2012,03,13,13,35,12.90
2012,03,13,13,36,11.30
2012,03,13,13,37,11.30
2012,03,13,13,38,9.60
2012,03,13,13,39,9.60
2012,03,13,13,40,4.80
2012,03,13,13,41,12.90
2012,03,13,13,42,9.60
2012,03,13,13,43,8.10
2012,03,13,13,44,11.30
2012,03,13,13,45,11.30
2012,03,13,13,46,9.60
2012,03,13,13,47,8.10
2012,03,13,13,48,8.10
2012,03,13,13,49,11.30
2012,03,13,13,50,11.30
2012,03,13,13,51,17.70
2012,03,13,13,52,11.30
2012,03,13,13,53,16.10
2012,03,13,13,54,9.60
2012,03,13,13,55,6.40
2012,03,13,13,56,8.10
2012,03,13,13,57,14.50
2012,03,13,13,58,12.90
2012,03,13,13,59,14.50
2012,03,13,14,00,19.30
2012,03,13,14,01,11.30
2012,03,13,14,02,19.30
2012,03,13,14,03,22.50
2012,03,13,14,04,14.50
2012,03,13,14,05,14.50
2012,03,13,14,06,12.90
2012,03,13,14,07,24.20
2012,03,13,14,08,24.20
2012,03,13,14,09,24.20
2012,03,13,14,10,24.20
2012,03,13,14,11,16.10
2012,03,13,14,12,8.10
2012,03,13,14,13,6.40
2012,03,13,14,14,14.50
2012,03,13,14,15,19.30
2012,03,13,14,16,19.30
2012,03,13,14,17,20.90
2012,03,13,14,18,22.50
2012,03,13,14,19,19.30
2012,03,13,14,20,20.90
2012,03,13,14,21,11.30
2012,03,13,14,22,19.30
2012,03,13,14,23,19.30
2012,03,13,14,24,14.50
2012,03,13,14,25,19.30
2012,03,13,14,26,20.90
2012,03,13,14,27,27.40
2012,03,13,14,28,16.10
2012,03,13,14,29,16.10
2012,03,13,14,30,17.70
2012,03,13,14,31,17.70
2012,03,13,14,32,19.30
2012,03,13,14,33,24.20
2012,03,13,14,34,22.50
2012,03,13,14,35,19.30
2012,03,13,14,36,24.20
2012,03,13,14,37,14.50
2012,03,13,14,38,17.70
2012,03,13,14,39,14.50
2012,03,13,14,40,16.10
2012,03,13,14,41,22.50
2012,03,13,14,42,24.20
2012,03,13,14,43,27.40
2012,03,13,14,44,25.70
2012,03,13,14,45,24.20
2012,03,13,14,46,6.40
2012,03,13,14,47,17.70
2012,03,13,14,48,32.20
2012,03,13,14,49,20.90
2012,03,13,14,50,29.00
2012,03,13,14,51,17.70
2012,03,13,14,52,19.30
2012,03,13,14,53,17.70
2012,03,13,14,54,19.30
2012,03,13,14,55,24.20
2012,03,13,14,56,32.20
2012,03,13,14,57,25.70
2012,03,13,14,58,30.60
2012,03,13,14,59,29.00
2012,03,13,15,00,24.20
2012,03,13,15,01,30.60
2012,03,13,15,02,19.30
2012,03,13,15,03,24.20
2012,03,13,15,04,30.60
2012,03,13,15,05,17.70
2012,03,13,15,06,35.40
2012,03,13,15,07,29.00
2012,03,13,15,08,29.00
2012,03,13,15,09,35.40
2012,03,13,15,10,22.50
2012,03,13,15,11,22.50
2012,03,13,15,12,37.00
2012,03,13,15,13,25.70
2012,03,13,15,14,27.40
2012,03,13,15,15,20.90
2012,03,13,15,16,24.20
2012,03,13,15,17,20.90
2012,03,13,15,18,11.30
2012,03,13,15,19,22.50
2012,03,13,15,20,19.30
2012,03,13,15,21,17.70
2012,03,13,15,22,19.30
2012,03,13,15,23,19.30
2012,03,13,15,24,14.50
2012,03,13,15,25,12.90
2012,03,13,15,26,24.20
2012,03,13,15,27,32.20
2012,03,13,15,28,30.60
2012,03,13,15,29,22.50
2012,03,13,15,30,11.30
2012,03,13,15,31,17.70
2012,03,13,15,32,27.40
2012,03,13,15,33,37.00
2012,03,13,15,34,19.30
2012,03,13,15,35,25.70
2012,03,13,15,36,22.50
2012,03,13,15,37,19.30
2012,03,13,15,38,25.70
2012,03,13,15,39,19.30
2012,03,13,15,40,29.00
2012,03,13,15,41,19.30
2012,03,13,15,42,17.70
2012,03,13,15,43,19.30
2012,03,13,15,44,27.40
2012,03,13,15,45,24.20
2012,03,13,15,46,14.50
2012,03,13,15,47,16.10
2012,03,13,15,48,9.60
2012,03,13,15,49,19.30
2012,03,13,15,50,19.30
2012,03,13,15,51,19.30
2012,03,13,15,52,24.20
2012,03,13,15,53,8.10
2012,03,13,15,54,16.10
2012,03,13,15,55,14.50
2012,03,13,15,56,20.90
2012,03,13,15,57,16.10
2012,03,13,15,58,22.50
2012,03,13,15,59,19.30
2012,03,13,16,00,17.70
2012,03,13,16,01,16.10
2012,03,13,16,02,17.70
2012,03,13,16,03,22.50
2012,03,13,16,04,16.10
2012,03,13,16,05,22.50
2012,03,13,16,06,24.20
2012,03,13,16,07,14.50
2012,03,13,16,08,16.10
2012,03,13,16,09,25.70
2012,03,13,16,10,12.90
2012,03,13,16,11,33.80
2012,03,13,16,12,25.70
2012,03,13,16,13,22.50
2012,03,13,16,14,22.50
2012,03,13,16,15,29.00
2012,03,13,16,16,33.80
2012,03,13,16,17,29.00
2012,03,13,16,18,17.70
2012,03,13,16,19,40.20
2012,03,13,16,20,25.70
2012,03,13,16,21,25.70
2012,03,13,16,22,24.20
2012,03,13,16,23,30.60
2012,03,13,16,24,29.00
2012,03,13,16,25,38.60
2012,03,13,16,26,35.40
2012,03,13,16,27,30.60
2012,03,13,16,28,32.20
2012,03,13,16,29,33.80
2012,03,13,16,30,40.20
2012,03,13,16,31,19.30
2012,03,13,16,32,29.00
2012,03,13,16,33,33.80
2012,03,13,16,34,32.20
2012,03,13,16,35,27.40
2012,03,13,16,36,22.50
2012,03,13,16,37,19.30
2012,03,13,16,38,16.10
2012,03,13,16,39,20.90
2012,03,13,16,40,17.70
2012,03,13,16,41,11.30
2012,03,13,16,42,22.50
2012,03,13,16,43,20.90
2012,03,13,16,44,19.30
2012,03,13,16,45,19.30
2012,03,13,16,46,17.70
2012,03,13,16,47,22.50
2012,03,13,16,48,19.30
2012,03,13,16,49,24.20
2012,03,13,16,50,24.20
2012,03,13,16,51,20.90
2012,03,13,16,52,17.70
2012,03,13,16,53,25.70
2012,03,13,16,54,22.50
2012,03,13,16,55,20.90
2012,03,13,16,56,17.70
2012,03,13,16,57,25.70
2012,03,13,16,58,17.70
2012,03,13,16,59,20.90
2012,03,13,17,00,20.90
2012,03,13,17,01,24.20
2012,03,13,17,02,25.70
2012,03,13,17,03,17.70
2012,03,13,17,04,16.10
2012,03,13,17,05,17.70
2012,03,13,17,06,14.50
2012,03,13,17,07,19.30
2012,03,13,17,08,27.40
2012,03,13,17,09,22.50
2012,03,13,17,10,19.30
2012,03,13,17,11,22.50
2012,03,13,17,12,19.30
2012,03,13,17,13,11.30
2012,03,13,17,14,14.50
2012,03,13,17,15,16.10
2012,03,13,17,16,25.70
2012,03,13,17,17,17.70
2012,03,13,17,18,17.70
2012,03,13,17,19,17.70
2012,03,13,17,20,22.50
2012,03,13,17,21,16.10
2012,03,13,17,22,27.40
2012,03,13,17,23,22.50
2012,03,13,17,24,30.60
2012,03,13,17,25,25.70
2012,03,13,17,26,29.00
2012,03,13,17,27,20.90
2012,03,13,17,28,27.40
2012,03,13,17,29,24.20
2012,03,13,17,30,27.40
2012,03,13,17,31,19.30
2012,03,13,17,32,25.70
2012,03,13,17,33,29.00
2012,03,13,17,34,27.40
2012,03,13,17,35,22.50
2012,03,13,17,36,16.10
2012,03,13,17,37,17.70
2012,03,13,17,38,8.10
2012,03,13,17,39,29.00
2012,03,13,17,40,17.70